000000,19.8595, 01 Nov 2015, 00:00:34
000030,19.8587, 01 Nov 2015, 00:01:04
000100,19.8571, 01 Nov 2015, 00:01:36
000200,19.8558, 01 Nov 2015, 00:02:35
000230,19.8565, 01 Nov 2015, 00:03:05
000300,19.856, 01 Nov 2015, 00:03:35
000330,19.8561, 01 Nov 2015, 00:04:06
000400,19.8555, 01 Nov 2015, 00:04:35
000430,19.8551, 01 Nov 2015, 00:05:05
000500,19.8544, 01 Nov 2015, 00:05:35
000530,19.8539, 01 Nov 2015, 00:06:05
000600,19.8531, 01 Nov 2015, 00:06:36
000630,19.8529, 01 Nov 2015, 00:07:05
000700,19.8521, 01 Nov 2015, 00:07:35
000730,19.8526, 01 Nov 2015, 00:08:05
000800,19.8526, 01 Nov 2015, 00:08:35
000830,19.853, 01 Nov 2015, 00:09:06
000900,19.853, 01 Nov 2015, 00:09:35
000930,19.852, 01 Nov 2015, 00:10:05
001000,19.8513, 01 Nov 2015, 00:10:35
001030,19.8498, 01 Nov 2015, 00:11:06
001100,19.8492, 01 Nov 2015, 00:11:35
001130,19.8479, 01 Nov 2015, 00:12:05
001200,19.8472, 01 Nov 2015, 00:12:35
001230,19.847, 01 Nov 2015, 00:13:05
001300,19.846, 01 Nov 2015, 00:13:35
001330,19.8454, 01 Nov 2015, 00:14:05
001400,19.8445, 01 Nov 2015, 00:14:35
001430,19.8442, 01 Nov 2015, 00:15:05
001530,19.8457, 01 Nov 2015, 00:16:05
001600,19.8463, 01 Nov 2015, 00:16:35
001630,19.8468, 01 Nov 2015, 00:17:05
001700,19.8472, 01 Nov 2015, 00:17:35
001730,19.8481, 01 Nov 2015, 00:18:05
001800,19.8492, 01 Nov 2015, 00:18:35
001830,19.8516, 01 Nov 2015, 00:19:05
001900,19.8538, 01 Nov 2015, 00:19:35
001930,19.8534, 01 Nov 2015, 00:20:06
002000,19.8517, 01 Nov 2015, 00:20:35
002030,19.8497, 01 Nov 2015, 00:21:05
002100,19.8495, 01 Nov 2015, 00:21:35
002130,19.8498, 01 Nov 2015, 00:22:04
002200,19.8497, 01 Nov 2015, 00:22:35
002230,19.849, 01 Nov 2015, 00:23:05
002300,19.8479, 01 Nov 2015, 00:23:35
002330,19.8472, 01 Nov 2015, 00:24:05
002400,19.8458, 01 Nov 2015, 00:24:34
002430,19.8455, 01 Nov 2015, 00:25:05
002500,19.8447, 01 Nov 2015, 00:25:35
002530,19.8451, 01 Nov 2015, 00:26:05
002600,19.8469, 01 Nov 2015, 00:26:34
002630,19.8483, 01 Nov 2015, 00:27:05
002700,19.8492, 01 Nov 2015, 00:27:35
002730,19.849, 01 Nov 2015, 00:28:05
002830,19.8472, 01 Nov 2015, 00:29:05
002900,19.8467, 01 Nov 2015, 00:29:35
002930,19.8463, 01 Nov 2015, 00:30:05
003000,19.8455, 01 Nov 2015, 00:30:35
003030,19.8454, 01 Nov 2015, 00:31:04
003100,19.8464, 01 Nov 2015, 00:31:35
003130,19.8467, 01 Nov 2015, 00:32:05
003200,19.847, 01 Nov 2015, 00:32:34
003230,19.8461, 01 Nov 2015, 00:33:04
003300,19.8457, 01 Nov 2015, 00:33:35
003330,19.8452, 01 Nov 2015, 00:34:05
003400,19.8445, 01 Nov 2015, 00:34:35
003430,19.8435, 01 Nov 2015, 00:35:04
003500,19.8432, 01 Nov 2015, 00:35:34
003530,19.8429, 01 Nov 2015, 00:36:05
003600,19.8426, 01 Nov 2015, 00:36:35
003630,19.8419, 01 Nov 2015, 00:37:04
003700,19.8419, 01 Nov 2015, 00:37:34
003730,19.8416, 01 Nov 2015, 00:38:05
003800,19.8415, 01 Nov 2015, 00:38:35
003830,19.8408, 01 Nov 2015, 00:39:05
003900,19.8396, 01 Nov 2015, 00:39:34
003930,19.8395, 01 Nov 2015, 00:40:04
004000,19.8391, 01 Nov 2015, 00:40:35
004030,19.8394, 01 Nov 2015, 00:41:05
004100,19.8396, 01 Nov 2015, 00:41:35
004130,19.8397, 01 Nov 2015, 00:42:05
004200,19.8377, 01 Nov 2015, 00:42:36
004230,19.8374, 01 Nov 2015, 00:43:05
004300,19.8368, 01 Nov 2015, 00:43:35
004330,19.836, 01 Nov 2015, 00:44:05
004400,19.8359, 01 Nov 2015, 00:44:36
004430,19.8372, 01 Nov 2015, 00:45:06
004500,19.8384, 01 Nov 2015, 00:45:35
004530,19.8383, 01 Nov 2015, 00:46:05
004600,19.8379, 01 Nov 2015, 00:46:35
004630,19.8376, 01 Nov 2015, 00:47:06
004700,19.8362, 01 Nov 2015, 00:47:35
004730,19.8356, 01 Nov 2015, 00:48:05
004800,19.836, 01 Nov 2015, 00:48:35
004830,19.8354, 01 Nov 2015, 00:49:06
004900,19.8351, 01 Nov 2015, 00:49:35
004930,19.8356, 01 Nov 2015, 00:50:05
005000,19.8365, 01 Nov 2015, 00:50:35
005030,19.8366, 01 Nov 2015, 00:51:06
005100,19.8374, 01 Nov 2015, 00:51:35
005130,19.8375, 01 Nov 2015, 00:52:05
005200,19.8378, 01 Nov 2015, 00:52:35
005230,19.839, 01 Nov 2015, 00:53:05
005300,19.8396, 01 Nov 2015, 00:53:35
005330,19.8401, 01 Nov 2015, 00:54:05
005400,19.8411, 01 Nov 2015, 00:54:35
005430,19.8416, 01 Nov 2015, 00:55:05
005530,19.8412, 01 Nov 2015, 00:56:05
005600,19.8415, 01 Nov 2015, 00:56:35
005630,19.8409, 01 Nov 2015, 00:57:05
005700,19.8408, 01 Nov 2015, 00:57:36
005730,19.8406, 01 Nov 2015, 00:58:05
005800,19.8414, 01 Nov 2015, 00:58:35
005830,19.8423, 01 Nov 2015, 00:59:05
005900,19.8453, 01 Nov 2015, 00:59:35
005930,19.8479, 01 Nov 2015, 01:00:05
010000,19.8483, 01 Nov 2015, 01:00:35
010030,19.847, 01 Nov 2015, 01:01:05
010100,19.8444, 01 Nov 2015, 01:01:35
010130,19.843, 01 Nov 2015, 01:02:04
010200,19.8419, 01 Nov 2015, 01:02:35
010230,19.8412, 01 Nov 2015, 01:03:05
010300,19.84, 01 Nov 2015, 01:03:35
010330,19.8394, 01 Nov 2015, 01:04:05
010400,19.839, 01 Nov 2015, 01:04:35
010430,19.8388, 01 Nov 2015, 01:05:05
010500,19.8394, 01 Nov 2015, 01:05:35
010530,19.84, 01 Nov 2015, 01:06:05
010600,19.8411, 01 Nov 2015, 01:06:34
010630,19.841, 01 Nov 2015, 01:07:05
010700,19.8407, 01 Nov 2015, 01:07:35
010730,19.8411, 01 Nov 2015, 01:08:05
010800,19.8403, 01 Nov 2015, 01:08:35
010830,19.84, 01 Nov 2015, 01:09:04
010900,19.8414, 01 Nov 2015, 01:09:35
010930,19.8414, 01 Nov 2015, 01:10:05
011000,19.842, 01 Nov 2015, 01:10:35
011030,19.842, 01 Nov 2015, 01:11:05
011100,19.8435, 01 Nov 2015, 01:11:35
011130,19.8451, 01 Nov 2015, 01:12:05
011200,19.8462, 01 Nov 2015, 01:12:35
011230,19.8469, 01 Nov 2015, 01:13:04
011300,19.8474, 01 Nov 2015, 01:13:34
011330,19.8477, 01 Nov 2015, 01:14:05
011400,19.8481, 01 Nov 2015, 01:14:35
011500,19.8507, 01 Nov 2015, 01:15:34
011530,19.8515, 01 Nov 2015, 01:16:05
011600,19.8515, 01 Nov 2015, 01:16:35
011630,19.8521, 01 Nov 2015, 01:17:05
011700,19.854, 01 Nov 2015, 01:17:34
011730,19.8554, 01 Nov 2015, 01:18:04
011800,19.8572, 01 Nov 2015, 01:18:35
011830,19.8586, 01 Nov 2015, 01:19:05
011900,19.8598, 01 Nov 2015, 01:19:35
011930,19.8616, 01 Nov 2015, 01:20:04
012000,19.8628, 01 Nov 2015, 01:20:34
012030,19.8651, 01 Nov 2015, 01:21:05
012100,19.8659, 01 Nov 2015, 01:21:35
012130,19.8666, 01 Nov 2015, 01:22:05
012200,19.8673, 01 Nov 2015, 01:22:35
012230,19.8675, 01 Nov 2015, 01:23:06
012300,19.8673, 01 Nov 2015, 01:23:35
012330,19.8669, 01 Nov 2015, 01:24:05
012400,19.8664, 01 Nov 2015, 01:24:35
012430,19.8663, 01 Nov 2015, 01:25:06
012500,19.8673, 01 Nov 2015, 01:25:36
012530,19.8676, 01 Nov 2015, 01:26:05
012600,19.8694, 01 Nov 2015, 01:26:35
012630,19.8709, 01 Nov 2015, 01:27:05
012700,19.8717, 01 Nov 2015, 01:27:36
012730,19.8716, 01 Nov 2015, 01:28:05
012800,19.8708, 01 Nov 2015, 01:28:35
012830,19.8706, 01 Nov 2015, 01:29:05
012900,19.869, 01 Nov 2015, 01:29:36
012930,19.8682, 01 Nov 2015, 01:30:06
013000,19.8674, 01 Nov 2015, 01:30:35
013030,19.8666, 01 Nov 2015, 01:31:05
013100,19.867, 01 Nov 2015, 01:31:35
013130,19.8687, 01 Nov 2015, 01:32:05
013200,19.8676, 01 Nov 2015, 01:32:35
013230,19.8676, 01 Nov 2015, 01:33:05
013300,19.8668, 01 Nov 2015, 01:33:35
013330,19.866, 01 Nov 2015, 01:34:06
013400,19.8657, 01 Nov 2015, 01:34:35
013430,19.8652, 01 Nov 2015, 01:35:05
013500,19.8657, 01 Nov 2015, 01:35:35
013530,19.8653, 01 Nov 2015, 01:36:05
013600,19.8643, 01 Nov 2015, 01:36:35
013630,19.8637, 01 Nov 2015, 01:37:05
013700,19.8635, 01 Nov 2015, 01:37:35
013730,19.8622, 01 Nov 2015, 01:38:05
013800,19.8622, 01 Nov 2015, 01:38:36
013830,19.862, 01 Nov 2015, 01:39:05
013900,19.8614, 01 Nov 2015, 01:39:35
013930,19.8608, 01 Nov 2015, 01:40:05
014000,19.8605, 01 Nov 2015, 01:40:35
014030,19.8596, 01 Nov 2015, 01:41:05
014100,19.859, 01 Nov 2015, 01:41:35
014130,19.8581, 01 Nov 2015, 01:42:05
014230,19.857, 01 Nov 2015, 01:43:05
014300,19.8571, 01 Nov 2015, 01:43:35
014330,19.8565, 01 Nov 2015, 01:44:05
014400,19.8564, 01 Nov 2015, 01:44:35
014430,19.8559, 01 Nov 2015, 01:45:04
014500,19.8557, 01 Nov 2015, 01:45:35
014530,19.8557, 01 Nov 2015, 01:46:05
014600,19.8549, 01 Nov 2015, 01:46:35
014630,19.8555, 01 Nov 2015, 01:47:04
014700,19.8554, 01 Nov 2015, 01:47:35
014730,19.8546, 01 Nov 2015, 01:48:05
014800,19.854, 01 Nov 2015, 01:48:35
014830,19.8531, 01 Nov 2015, 01:49:05
014900,19.8525, 01 Nov 2015, 01:49:35
014930,19.8519, 01 Nov 2015, 01:50:05
015000,19.8518, 01 Nov 2015, 01:50:35
015030,19.8511, 01 Nov 2015, 01:51:05
015100,19.8507, 01 Nov 2015, 01:51:34
015130,19.8505, 01 Nov 2015, 01:52:05
015200,19.8495, 01 Nov 2015, 01:52:35
015300,19.8506, 01 Nov 2015, 01:53:34
015330,19.8506, 01 Nov 2015, 01:54:05
015400,19.8509, 01 Nov 2015, 01:54:35
015430,19.8508, 01 Nov 2015, 01:55:05
015500,19.8509, 01 Nov 2015, 01:55:34
015530,19.8508, 01 Nov 2015, 01:56:04
015600,19.8503, 01 Nov 2015, 01:56:35
015630,19.8504, 01 Nov 2015, 01:57:05
015730,19.8502, 01 Nov 2015, 01:58:04
015800,19.8505, 01 Nov 2015, 01:58:35
015830,19.851, 01 Nov 2015, 01:59:05
015900,19.8512, 01 Nov 2015, 01:59:35
015930,19.851, 01 Nov 2015, 02:00:04
020000,19.8508, 01 Nov 2015, 02:00:34
020030,19.8513, 01 Nov 2015, 02:01:05
020100,19.851, 01 Nov 2015, 02:01:35
020130,19.8507, 01 Nov 2015, 02:02:05
020200,19.8505, 01 Nov 2015, 02:02:35
020230,19.8494, 01 Nov 2015, 02:03:06
020300,19.8496, 01 Nov 2015, 02:03:36
020330,19.8497, 01 Nov 2015, 02:04:05
020400,19.8489, 01 Nov 2015, 02:04:35
020430,19.8492, 01 Nov 2015, 02:05:05
020500,19.8492, 01 Nov 2015, 02:05:36
020530,19.8498, 01 Nov 2015, 02:06:06
020600,19.8495, 01 Nov 2015, 02:06:35
020630,19.8495, 01 Nov 2015, 02:07:05
020700,19.8486, 01 Nov 2015, 02:07:35
020730,19.8495, 01 Nov 2015, 02:08:06
020830,19.8508, 01 Nov 2015, 02:09:05
020900,19.851, 01 Nov 2015, 02:09:35
020930,19.8515, 01 Nov 2015, 02:10:06
021000,19.8517, 01 Nov 2015, 02:10:36
021030,19.8516, 01 Nov 2015, 02:11:05
021100,19.8518, 01 Nov 2015, 02:11:35
021130,19.8513, 01 Nov 2015, 02:12:05
021200,19.8518, 01 Nov 2015, 02:12:36
021230,19.8507, 01 Nov 2015, 02:13:05
021300,19.8509, 01 Nov 2015, 02:13:35
021330,19.8509, 01 Nov 2015, 02:14:05
021400,19.8514, 01 Nov 2015, 02:14:35
021430,19.8519, 01 Nov 2015, 02:15:05
021500,19.8517, 01 Nov 2015, 02:15:35
021530,19.8513, 01 Nov 2015, 02:16:05
021600,19.8523, 01 Nov 2015, 02:16:35
021630,19.8517, 01 Nov 2015, 02:17:06
021700,19.8514, 01 Nov 2015, 02:17:35
021730,19.8514, 01 Nov 2015, 02:18:05
021800,19.851, 01 Nov 2015, 02:18:35
021830,19.8513, 01 Nov 2015, 02:19:05
021900,19.852, 01 Nov 2015, 02:19:35
021930,19.851, 01 Nov 2015, 02:20:05
022000,19.851, 01 Nov 2015, 02:20:35
022030,19.8506, 01 Nov 2015, 02:21:05
022100,19.8502, 01 Nov 2015, 02:21:36
022130,19.8486, 01 Nov 2015, 02:22:05
022200,19.8491, 01 Nov 2015, 02:22:35
022230,19.8488, 01 Nov 2015, 02:23:05
022300,19.8489, 01 Nov 2015, 02:23:34
022330,19.8469, 01 Nov 2015, 02:24:05
022400,19.8464, 01 Nov 2015, 02:24:35
022430,19.8453, 01 Nov 2015, 02:25:05
022500,19.8435, 01 Nov 2015, 02:25:35
022530,19.8425, 01 Nov 2015, 02:26:05
022600,19.8411, 01 Nov 2015, 02:26:35
022630,19.8396, 01 Nov 2015, 02:27:05
022700,19.8382, 01 Nov 2015, 02:27:35
022730,19.8371, 01 Nov 2015, 02:28:04
022800,19.8369, 01 Nov 2015, 02:28:35
022830,19.8363, 01 Nov 2015, 02:29:05
022900,19.8352, 01 Nov 2015, 02:29:35
022930,19.8355, 01 Nov 2015, 02:30:04
023000,19.8342, 01 Nov 2015, 02:30:35
023030,19.8325, 01 Nov 2015, 02:31:05
023100,19.8315, 01 Nov 2015, 02:31:35
023130,19.8297, 01 Nov 2015, 02:32:04
023200,19.8275, 01 Nov 2015, 02:32:35
023230,19.8238, 01 Nov 2015, 02:33:05
023300,19.8199, 01 Nov 2015, 02:33:35
023330,19.8159, 01 Nov 2015, 02:34:04
023400,19.8132, 01 Nov 2015, 02:34:34
023430,19.8137, 01 Nov 2015, 02:35:05
023500,19.814, 01 Nov 2015, 02:35:35
023600,19.8188, 01 Nov 2015, 02:36:34
023630,19.8209, 01 Nov 2015, 02:37:05
023700,19.8225, 01 Nov 2015, 02:37:35
023730,19.8221, 01 Nov 2015, 02:38:05
023800,19.8216, 01 Nov 2015, 02:38:34
023830,19.8202, 01 Nov 2015, 02:39:05
023900,19.8185, 01 Nov 2015, 02:39:35
023930,19.8161, 01 Nov 2015, 02:40:05
024000,19.8152, 01 Nov 2015, 02:40:34
024030,19.8142, 01 Nov 2015, 02:41:04
024100,19.8146, 01 Nov 2015, 02:41:35
024200,19.8191, 01 Nov 2015, 02:42:35
024230,19.8214, 01 Nov 2015, 02:43:05
024300,19.8245, 01 Nov 2015, 02:43:36
024330,19.8263, 01 Nov 2015, 02:44:06
024400,19.8269, 01 Nov 2015, 02:44:35
024430,19.827, 01 Nov 2015, 02:45:05
024500,19.8258, 01 Nov 2015, 02:45:36
024530,19.8242, 01 Nov 2015, 02:46:06
024600,19.8228, 01 Nov 2015, 02:46:35
024630,19.8206, 01 Nov 2015, 02:47:05
024700,19.818, 01 Nov 2015, 02:47:35
024730,19.8159, 01 Nov 2015, 02:48:06
024830,19.8109, 01 Nov 2015, 02:49:05
024900,19.8079, 01 Nov 2015, 02:49:35
024930,19.8043, 01 Nov 2015, 02:50:06
025000,19.8006, 01 Nov 2015, 02:50:36
025030,19.7955, 01 Nov 2015, 02:51:05
025100,19.7903, 01 Nov 2015, 02:51:35
025130,19.7849, 01 Nov 2015, 02:52:06
025200,19.7801, 01 Nov 2015, 02:52:35
025230,19.7735, 01 Nov 2015, 02:53:05
025300,19.7635, 01 Nov 2015, 02:53:35
025330,19.7549, 01 Nov 2015, 02:54:05
025400,19.7468, 01 Nov 2015, 02:54:36
025430,19.7402, 01 Nov 2015, 02:55:05
025500,19.733, 01 Nov 2015, 02:55:35
025530,19.7256, 01 Nov 2015, 02:56:05
025600,19.7179, 01 Nov 2015, 02:56:36
025630,19.7088, 01 Nov 2015, 02:57:05
025700,19.6982, 01 Nov 2015, 02:57:35
025730,19.6862, 01 Nov 2015, 02:58:05
025800,19.6747, 01 Nov 2015, 02:58:35
025830,19.6651, 01 Nov 2015, 02:59:05
025900,19.6557, 01 Nov 2015, 02:59:35
025930,19.6473, 01 Nov 2015, 03:00:05
030000,19.6386, 01 Nov 2015, 03:00:35
030030,19.6305, 01 Nov 2015, 03:01:06
030100,19.6234, 01 Nov 2015, 03:01:35
030130,19.6167, 01 Nov 2015, 03:02:05
030200,19.6105, 01 Nov 2015, 03:02:35
030230,19.6048, 01 Nov 2015, 03:03:05
030300,19.6, 01 Nov 2015, 03:03:35
030330,19.5956, 01 Nov 2015, 03:04:05
030400,19.5944, 01 Nov 2015, 03:04:35
030430,19.5951, 01 Nov 2015, 03:05:05
030500,19.597, 01 Nov 2015, 03:05:35
030530,19.6005, 01 Nov 2015, 03:06:05
030600,19.6056, 01 Nov 2015, 03:06:35
030630,19.6104, 01 Nov 2015, 03:07:05
030700,19.6145, 01 Nov 2015, 03:07:35
030800,19.621, 01 Nov 2015, 03:08:35
030830,19.6235, 01 Nov 2015, 03:09:05
030900,19.6254, 01 Nov 2015, 03:09:35
030930,19.6276, 01 Nov 2015, 03:10:05
031000,19.6315, 01 Nov 2015, 03:10:34
031030,19.6363, 01 Nov 2015, 03:11:05
031100,19.6417, 01 Nov 2015, 03:11:35
031130,19.6457, 01 Nov 2015, 03:12:05
031200,19.6493, 01 Nov 2015, 03:12:34
031230,19.6528, 01 Nov 2015, 03:13:05
031300,19.6571, 01 Nov 2015, 03:13:35
031330,19.6612, 01 Nov 2015, 03:14:05
031400,19.6637, 01 Nov 2015, 03:14:34
031430,19.6651, 01 Nov 2015, 03:15:04
031500,19.6664, 01 Nov 2015, 03:15:35
031530,19.6659, 01 Nov 2015, 03:16:05
031600,19.6651, 01 Nov 2015, 03:16:35
031630,19.6624, 01 Nov 2015, 03:17:04
031700,19.6594, 01 Nov 2015, 03:17:35
031730,19.6569, 01 Nov 2015, 03:18:05
031800,19.6548, 01 Nov 2015, 03:18:35
031900,19.6501, 01 Nov 2015, 03:19:34
031930,19.6485, 01 Nov 2015, 03:20:05
032000,19.6463, 01 Nov 2015, 03:20:35
032030,19.6437, 01 Nov 2015, 03:21:05
032100,19.6402, 01 Nov 2015, 03:21:34
032130,19.6369, 01 Nov 2015, 03:22:06
032200,19.6346, 01 Nov 2015, 03:22:36
032230,19.6327, 01 Nov 2015, 03:23:05
032300,19.6296, 01 Nov 2015, 03:23:35
032330,19.6266, 01 Nov 2015, 03:24:05
032400,19.6245, 01 Nov 2015, 03:24:36
032430,19.6215, 01 Nov 2015, 03:25:06
032500,19.6181, 01 Nov 2015, 03:25:35
032530,19.6113, 01 Nov 2015, 03:26:05
032600,19.6038, 01 Nov 2015, 03:26:36
032630,19.5959, 01 Nov 2015, 03:27:06
032700,19.5893, 01 Nov 2015, 03:27:35
032730,19.5825, 01 Nov 2015, 03:28:05
032800,19.5774, 01 Nov 2015, 03:28:35
032830,19.5728, 01 Nov 2015, 03:29:06
032900,19.5694, 01 Nov 2015, 03:29:36
032930,19.5676, 01 Nov 2015, 03:30:05
033000,19.5652, 01 Nov 2015, 03:30:35
033030,19.5631, 01 Nov 2015, 03:31:06
033100,19.5613, 01 Nov 2015, 03:31:36
033130,19.5593, 01 Nov 2015, 03:32:05
033200,19.5563, 01 Nov 2015, 03:32:35
033230,19.5534, 01 Nov 2015, 03:33:05
033300,19.5495, 01 Nov 2015, 03:33:36
033330,19.5466, 01 Nov 2015, 03:34:05
033400,19.5444, 01 Nov 2015, 03:34:35
033430,19.5432, 01 Nov 2015, 03:35:05
033500,19.5417, 01 Nov 2015, 03:35:35
033600,19.5396, 01 Nov 2015, 03:36:35
033630,19.5386, 01 Nov 2015, 03:37:05
033700,19.5376, 01 Nov 2015, 03:37:35
033730,19.5349, 01 Nov 2015, 03:38:06
033800,19.5321, 01 Nov 2015, 03:38:35
033830,19.5285, 01 Nov 2015, 03:39:05
033900,19.5246, 01 Nov 2015, 03:39:35
033930,19.519, 01 Nov 2015, 03:40:05
034030,19.5027, 01 Nov 2015, 03:41:05
034100,19.4933, 01 Nov 2015, 03:41:35
034130,19.4858, 01 Nov 2015, 03:42:05
034200,19.4803, 01 Nov 2015, 03:42:35
034230,19.4769, 01 Nov 2015, 03:43:05
034300,19.474, 01 Nov 2015, 03:43:35
034330,19.4713, 01 Nov 2015, 03:44:05
034430,19.4691, 01 Nov 2015, 03:45:05
034500,19.4724, 01 Nov 2015, 03:45:35
034530,19.4774, 01 Nov 2015, 03:46:05
034600,19.4857, 01 Nov 2015, 03:46:35
034630,19.4948, 01 Nov 2015, 03:47:05
034700,19.5031, 01 Nov 2015, 03:47:35
034730,19.5093, 01 Nov 2015, 03:48:05
034800,19.5109, 01 Nov 2015, 03:48:35
034900,19.5072, 01 Nov 2015, 03:49:35
034930,19.5041, 01 Nov 2015, 03:50:05
035000,19.4988, 01 Nov 2015, 03:50:35
035030,19.4928, 01 Nov 2015, 03:51:05
035100,19.4857, 01 Nov 2015, 03:51:35
035130,19.4777, 01 Nov 2015, 03:52:05
035200,19.4702, 01 Nov 2015, 03:52:35
035300,19.4585, 01 Nov 2015, 03:53:34
035330,19.4516, 01 Nov 2015, 03:54:05
035400,19.4461, 01 Nov 2015, 03:54:35
035430,19.4418, 01 Nov 2015, 03:55:05
035500,19.4397, 01 Nov 2015, 03:55:34
035530,19.4401, 01 Nov 2015, 03:56:05
035600,19.4405, 01 Nov 2015, 03:56:35
035630,19.4426, 01 Nov 2015, 03:57:05
035730,19.4521, 01 Nov 2015, 03:58:04
035800,19.4578, 01 Nov 2015, 03:58:35
035830,19.4646, 01 Nov 2015, 03:59:05
035900,19.469, 01 Nov 2015, 03:59:35
035930,19.472, 01 Nov 2015, 04:00:04
040000,19.4733, 01 Nov 2015, 04:00:35
040030,19.4712, 01 Nov 2015, 04:01:05
040100,19.4675, 01 Nov 2015, 04:01:35
040130,19.463, 01 Nov 2015, 04:02:05
040200,19.4581, 01 Nov 2015, 04:02:35
040230,19.4518, 01 Nov 2015, 04:03:06
040300,19.4453, 01 Nov 2015, 04:03:36
040330,19.4387, 01 Nov 2015, 04:04:05
040400,19.4309, 01 Nov 2015, 04:04:35
040430,19.4232, 01 Nov 2015, 04:05:05
040500,19.4159, 01 Nov 2015, 04:05:36
040530,19.4103, 01 Nov 2015, 04:06:06
040600,19.4091, 01 Nov 2015, 04:06:35
040630,19.4101, 01 Nov 2015, 04:07:05
040700,19.4124, 01 Nov 2015, 04:07:35
040730,19.4129, 01 Nov 2015, 04:08:06
040800,19.4136, 01 Nov 2015, 04:08:36
040830,19.4131, 01 Nov 2015, 04:09:05
040900,19.4132, 01 Nov 2015, 04:09:35
040930,19.4137, 01 Nov 2015, 04:10:05
041000,19.4142, 01 Nov 2015, 04:10:36
041030,19.4165, 01 Nov 2015, 04:11:06
041100,19.4185, 01 Nov 2015, 04:11:35
041130,19.4206, 01 Nov 2015, 04:12:05
041200,19.4222, 01 Nov 2015, 04:12:36
041300,19.4254, 01 Nov 2015, 04:13:35
041330,19.4286, 01 Nov 2015, 04:14:05
041400,19.4342, 01 Nov 2015, 04:14:35
041430,19.4392, 01 Nov 2015, 04:15:06
041500,19.443, 01 Nov 2015, 04:15:35
041530,19.4463, 01 Nov 2015, 04:16:05
041600,19.448, 01 Nov 2015, 04:16:35
041630,19.4479, 01 Nov 2015, 04:17:05
041700,19.4452, 01 Nov 2015, 04:17:36
041730,19.4424, 01 Nov 2015, 04:18:05
041800,19.439, 01 Nov 2015, 04:18:35
041830,19.4367, 01 Nov 2015, 04:19:05
041900,19.4337, 01 Nov 2015, 04:19:36
041930,19.4299, 01 Nov 2015, 04:20:05
042000,19.425, 01 Nov 2015, 04:20:35
042030,19.42, 01 Nov 2015, 04:21:05
042100,19.4161, 01 Nov 2015, 04:21:35
042130,19.414, 01 Nov 2015, 04:22:05
042200,19.4117, 01 Nov 2015, 04:22:35
042230,19.409, 01 Nov 2015, 04:23:05
042300,19.4064, 01 Nov 2015, 04:23:35
042400,19.3968, 01 Nov 2015, 04:24:35
042430,19.3919, 01 Nov 2015, 04:25:05
042500,19.388, 01 Nov 2015, 04:25:35
042530,19.3849, 01 Nov 2015, 04:26:05
042600,19.3841, 01 Nov 2015, 04:26:35
042630,19.383, 01 Nov 2015, 04:27:05
042700,19.3815, 01 Nov 2015, 04:27:35
042730,19.3801, 01 Nov 2015, 04:28:05
042800,19.3775, 01 Nov 2015, 04:28:35
042830,19.3742, 01 Nov 2015, 04:29:05
042900,19.3709, 01 Nov 2015, 04:29:35
042930,19.368, 01 Nov 2015, 04:30:05
043000,19.367, 01 Nov 2015, 04:30:35
043100,19.3725, 01 Nov 2015, 04:31:35
043130,19.3812, 01 Nov 2015, 04:32:05
043200,19.3946, 01 Nov 2015, 04:32:35
043230,19.4092, 01 Nov 2015, 04:33:04
043300,19.4258, 01 Nov 2015, 04:33:35
043330,19.4417, 01 Nov 2015, 04:34:05
043400,19.4686, 01 Nov 2015, 04:34:35
043500,19.6107, 01 Nov 2015, 04:35:34
043530,19.6856, 01 Nov 2015, 04:36:05
043600,19.7562, 01 Nov 2015, 04:36:35
043630,19.8248, 01 Nov 2015, 04:37:05
043700,19.8916, 01 Nov 2015, 04:37:34
043730,19.9532, 01 Nov 2015, 04:38:05
043800,20.0009, 01 Nov 2015, 04:38:35
043830,20.034, 01 Nov 2015, 04:39:05
043900,20.0607, 01 Nov 2015, 04:39:35
043930,20.0843, 01 Nov 2015, 04:40:04
044000,20.1023, 01 Nov 2015, 04:40:35
044030,20.1147, 01 Nov 2015, 04:41:05
044100,20.1213, 01 Nov 2015, 04:41:35
044130,20.1255, 01 Nov 2015, 04:42:04
044200,20.127, 01 Nov 2015, 04:42:34
044230,20.1286, 01 Nov 2015, 04:43:05
044300,20.1291, 01 Nov 2015, 04:43:35
044330,20.1269, 01 Nov 2015, 04:44:04
044400,20.1231, 01 Nov 2015, 04:44:34
044430,20.1172, 01 Nov 2015, 04:45:04
044500,20.1104, 01 Nov 2015, 04:45:35
044530,20.1096, 01 Nov 2015, 04:46:05
044600,20.1161, 01 Nov 2015, 04:46:34
044630,20.1259, 01 Nov 2015, 04:47:04
044700,20.135, 01 Nov 2015, 04:47:35
044730,20.145, 01 Nov 2015, 04:48:05
044800,20.1565, 01 Nov 2015, 04:48:35
044830,20.166, 01 Nov 2015, 04:49:04
044900,20.1766, 01 Nov 2015, 04:49:34
044930,20.1857, 01 Nov 2015, 04:50:05
045000,20.1937, 01 Nov 2015, 04:50:35
045030,20.2004, 01 Nov 2015, 04:51:04
045100,20.2065, 01 Nov 2015, 04:51:34
045130,20.2117, 01 Nov 2015, 04:52:05
045200,20.2136, 01 Nov 2015, 04:52:36
045230,20.2108, 01 Nov 2015, 04:53:05
045300,20.2066, 01 Nov 2015, 04:53:35
045330,20.2006, 01 Nov 2015, 04:54:05
045400,20.1948, 01 Nov 2015, 04:54:36
045430,20.1876, 01 Nov 2015, 04:55:05
045500,20.1764, 01 Nov 2015, 04:55:35
045530,20.1601, 01 Nov 2015, 04:56:05
045600,20.1367, 01 Nov 2015, 04:56:35
045630,20.105, 01 Nov 2015, 04:57:06
045700,20.0765, 01 Nov 2015, 04:57:35
045730,20.0608, 01 Nov 2015, 04:58:05
045800,20.0557, 01 Nov 2015, 04:58:35
045830,20.0586, 01 Nov 2015, 04:59:05
045900,20.0661, 01 Nov 2015, 04:59:36
045930,20.0758, 01 Nov 2015, 05:00:05
050000,20.0865, 01 Nov 2015, 05:00:35
050030,20.0984, 01 Nov 2015, 05:01:05
050100,20.1116, 01 Nov 2015, 05:01:35
050130,20.1235, 01 Nov 2015, 05:02:05
050200,20.1367, 01 Nov 2015, 05:02:35
050230,20.15, 01 Nov 2015, 05:03:05
050300,20.1611, 01 Nov 2015, 05:03:35
050330,20.1676, 01 Nov 2015, 05:04:05
050430,20.1723, 01 Nov 2015, 05:05:05
050500,20.1702, 01 Nov 2015, 05:05:35
050530,20.1641, 01 Nov 2015, 05:06:05
050600,20.1552, 01 Nov 2015, 05:06:35
050630,20.1463, 01 Nov 2015, 05:07:06
050700,20.14, 01 Nov 2015, 05:07:35
050730,20.134, 01 Nov 2015, 05:08:05
050800,20.1295, 01 Nov 2015, 05:08:35
050830,20.1248, 01 Nov 2015, 05:09:05
050900,20.1216, 01 Nov 2015, 05:09:35
050930,20.1192, 01 Nov 2015, 05:10:05
051000,20.1163, 01 Nov 2015, 05:10:35
051030,20.112, 01 Nov 2015, 05:11:05
051100,20.1064, 01 Nov 2015, 05:11:35
051130,20.1025, 01 Nov 2015, 05:12:04
051200,20.1001, 01 Nov 2015, 05:12:35
051230,20.0997, 01 Nov 2015, 05:13:05
051300,20.099, 01 Nov 2015, 05:13:35
051330,20.0988, 01 Nov 2015, 05:14:05
051400,20.0997, 01 Nov 2015, 05:14:34
051430,20.1, 01 Nov 2015, 05:15:05
051500,20.1004, 01 Nov 2015, 05:15:35
051530,20.1027, 01 Nov 2015, 05:16:05
051600,20.1042, 01 Nov 2015, 05:16:35
051630,20.1049, 01 Nov 2015, 05:17:04
051700,20.106, 01 Nov 2015, 05:17:35
051730,20.1068, 01 Nov 2015, 05:18:05
051800,20.1057, 01 Nov 2015, 05:18:35
051830,20.1048, 01 Nov 2015, 05:19:05
051900,20.1028, 01 Nov 2015, 05:19:34
051930,20.1018, 01 Nov 2015, 05:20:05
052000,20.1001, 01 Nov 2015, 05:20:35
052030,20.0991, 01 Nov 2015, 05:21:05